Terminal Aerodrome Forecast
Issued by NWS Milwaukee/Sullivan, WI

Home | Current Version | Previous Version | Text Only | Print | Product List | Glossary On
Versions: 1 2 3 4 5 6 7 8 9 10 11 12 13 14 15 16 17 18 19 20 21 22 23 24 25 26 27 28 29 30 31 32 33 34 35 36 37 38 39 40 41 42 43 44 45 46 47 48 49 50
000
FTUS43 KMKX 281509 AAA
TAFMKE
TAF AMD
KMKE 281509Z 2815/2918 01014G21KT P6SM FEW040 SCT250
     FM281800 02010G17KT P6SM SCT040
     FM290000 27007KT P6SM BKN050
     FM290700 29004KT P6SM SCT060
     FM291400 31009KT P6SM SKC=

USA.gov is the U.S. government's official web portal to all federal, state and local government web resources and services.